Stampede Pass, WA
on Friday, February 8, 2013

Friday
Previous Day Next Day
Daily Summary
 ActualAverage (KEAT)Record (KEAT)
Temperature
Mean Temperature °F 30°F  
Max Temperature 27°F 37°F 53°F (1995)
Min Temperature 24°F 23°F 5°F (1994)
Degree Days
Heating Degree Days 40 35  
Month to date heating degree days 280  
Since 1 July heating degree days 4537  
Cooling Degree Days 0 0  
Month to date cooling degree days 0  
Year to date cooling degree days 0  
Moisture
Dew Point 23°F   
Average Humidity 89    
Maximum Humidity 96    
Minimum Humidity 86    
Precipitation
Precipitation 0.00 in 0.06 in 0.41 in (2002)
Month to date precipitation 0.43  
Year to date precipitation 2.30  
Snow
Snow 0.00 in 0.20 in in ()
Month to date snowfall 2.3  
Since 1 July snowfall 42.7  
Snow Depth in   
Wind
Wind Speed 5 mph   
Max Wind Speed 8 mph   
Max Gust Speed mph   
Visibility 5 miles   
Events Fog   

Key: T is trace of precipitation, MM is missing value
Source: NWS Daily Summary
Time(PST)TemperatureDew PointHumidity Pressure Visibility Wind DirectionWind SpeedGust SpeedPrecipitationEvents Conditions
12:56 AM 24.1°F 21.9°F 91% 30.14 in 1.0 miles WSW 4.6 mph - N/A   Mist
1:16 AM 24.8°F 21.2°F 86% 30.04 in 1.8 miles WSW 4.6 mph - N/A   Overcast
1:56 AM 24.1°F 21.9°F 91% 30.15 in 1.2 miles Variable 6.9 mph - N/A   Mostly Cloudy
2:31 AM 24.8°F 21.2°F 86% 30.05 in 1.5 miles Variable 4.6 mph - N/A   Overcast
3:25 AM 24.8°F 21.2°F 86% 30.05 in 0.8 miles Variable 4.6 mph - N/A   Mist
4:15 AM 24.8°F 21.2°F 86% 30.06 in 1.0 miles WSW 5.8 mph - N/A   Mist
6:56 AM 24.1°F 21.0°F 88% 30.20 in 0.5 miles Variable 4.6 mph - N/A Fog Light Freezing Fog
8:56 AM 25.0°F 21.9°F 88% 30.22 in 0.5 miles Variable 5.8 mph - N/A Fog Light Freezing Fog
9:25 AM 24.8°F 21.2°F 86% 30.11 in 1.5 miles Variable 5.8 mph - N/A   Overcast
9:56 AM 25.0°F 24.1°F 96% 30.22 in 9.0 miles Variable 5.8 mph - N/A   Mostly Cloudy
10:27 AM 26.6°F 24.8°F 93% 30.12 in 2.0 miles Variable 5.8 mph - N/A   Mostly Cloudy
11:56 AM 27.0°F 25.0°F 92% 30.22 in 10.0 miles Variable 6.9 mph - N/A   Overcast
12:31 PM 26.6°F 24.8°F 93% 30.11 in 10.0 miles WSW 8.1 mph - N/A   Mostly Cloudy
12:54 PM 26.6°F 24.8°F 93% 30.11 in 10.0 miles Variable 5.8 mph - N/A   Overcast
12:56 PM 27.0°F 24.1°F 89% 30.21 in 10.0 miles Variable 5.8 mph - N/A   Overcast
1:03 PM 26.6°F 24.8°F 93% 30.11 in 10.0 miles Variable 4.6 mph - N/A   Overcast
3:47 PM 26.6°F 23.0°F 86% 30.11 in 10.0 miles Variable 4.6 mph - N/A   Overcast
8:17 PM 24.8°F 23.0°F 93% 30.11 in 6.0 miles West 8.1 mph - N/A   Overcast
9:23 PM 24.8°F 23.0°F 93% 30.12 in 4.0 miles West 5.8 mph - N/A   Overcast
9:32 PM 24.8°F 21.2°F 86% 30.11 in 10.0 miles Variable 4.6 mph - N/A   Overcast
9:49 PM 24.8°F 21.2°F 86% 30.11 in 2.5 miles Variable 5.8 mph - N/A   Overcast
11:23 PM 24.8°F 21.2°F 86% 30.11 in 7.0 miles Variable 5.8 mph - N/A   Overcast
Moon Phase
Feb. 08 Feb. 10 Feb. 17 Feb. 25 Mar. 04
Sunrise:07:20 AM (PST) Moon Rise:05:56 AM (PST)2/8
Sunset:05:18 PM (PST) Moon Set:03:56 PM (PST)2/8

Copyright © 2014 The Weather Underground, Inc.